Temp
10 10 10 10 10 10 10 10 9 9 8 8 8 8 8 8 9 9 9 9 10 10 10 10 10 11 11 10 11 11 11 12 12 12 11 11 11 10 10 9 10 10 10 10 10 10 11
10 10 10 10 10 10 10 9 9 9 9 8 8 8 8 8 9 9 9 9 9 9 10 10 10 10 10 10 10 10 11 11 11 11 11 11 10 10 10 10 9 9 9 9 9 10 10
10 10 10 10 10 10 10 9 9 9 8 8 8 8 8 8 9 9 9 9 9 9 9 10 10 10 10 10 10 10 10 11 11 11 11 10 10 10 10 9 9 10 9 8 8 9 9
10 10 10 10 10 10 9 9 9 8 8 8 8 8 8 8 8 9 8 9 9 9 9 9 9 9 9 9 9 9 10 11 11 11 10 9 9 10 10 10 10 10 9 8 8 8 9
10 10 10 10 10 9 9 9 8 8 8 8 8 8 8 8 8 8 8 8 8 9 9 8 8 8 8 8 8 10 9 10 11 10 9 9 10 10 10 10 10 10 9 9 8 9 9
10 10 10 10 9 9 9 9 8 8 8 8 8 8 8 8 8 8 8 7 8 8 8 8 8 8 8 8 8 9 9 10 9 10 9 9 10 10 10 10 10 10 9 8 8 8 8
10 10 10 10 9 9 9 8 8 8 8 8 8 9 9 8 8 8 7 7 8 8 8 8 8 8 7 7 8 8 8 9 9 9 9 9 10 10 10 10 10 10 9 9 8 9 8
10 10 10 9 9 9 9 8 8 8 9 9 9 9 9 9 8 8 7 8 8 8 8 9 8 8 8 8 7 8 8 8 8 9 9 9 10 10 10 11 11 10 10 9 8 8 8
10 10 10 9 9 9 9 8 9 9 9 9 9 9 9 9 8 8 8 8 8 9 9 9 9 9 8 8 8 8 8 8 8 9 9 9 10 11 10 10 10 10 11 11 10 8 8
9 9 9 9 9 9 9 8 9 9 9 9 8 9 8 9 8 8 8 8 8 9 9 9 9 9 9 9 9 8 8 8 8 9 9 9 10 10 10 10 11 10 11 10 10 9 8
9 9 9 9 9 9 9 9 9 9 9 8 8 8 8 8 8 8 8 8 8 8 6 9 9 9 9 9 9 9 9 8 8 9 9 10 10 10 11 12 12 11 10 9 9 9 7
9 9 9 9 9 9 9 9 9 8 8 8 8 8 8 8 9 8 8 8 8 9 9 10 10 10 10 10 10 9 9 9 9 9 10 10 11 11 11 12 11 10 10 9 10 9 8
9 9 9 9 9 9 9 9 9 8 8 8 8 8 8 8 8 8 8 9 9 9 9 10 10 10 10 10 10 10 10 9 9 10 10 11 11 12 12 12 9 10 10 8 8 8 8
9 9 9 9 9 9 9 9 8 8 8 8 8 8 8 8 8 8 9 9 9 9 9 9 10 10 10 9 10 9 9 9 10 10 10 11 10 12 12 13 12 10 11 10 7 8 9
8 9 9 9 9 9 9 9 8 8 8 8 8 7 8 8 8 9 9 9 9 9 9 10 10 10 9 10 10 10 10 10 10 10 10 11 11 11 11 12 12 10 11 11 11 9 10
8 8 9 9 9 9 9 9 8 8 8 8 8 7 8 8 8 9 9 9 9 9 9 9 9 9 9 9 10 10 10 9 10 10 11 10 11 11 11 11 11 12 12 11 11 8 9
8 8 8 8 8 9 9 9 9 8 8 8 7 8 8 8 9 9 9 9 9 9 9 9 9 9 9 9 9 9 9 9 9 10 10 10 11 11 11 11 11 11 11 12 12 12 9
7 7 8 8 8 8 9 9 8 8 8 8 8 8 8 8 8 8 8 8 9 9 9 9 9 9 9 9 9 9 9 9 9 9 10 10 11 11 11 11 12 11 11 12 12 12 12
6 6 7 7 8 8 8 8 8 8 7 8 8 8 8 8 8 8 8 9 9 9 9 9 9 8 8 9 9 9 9 9 9 9 9 10 10 10 11 11 11 11 11 11 13 13 13
6 6 6 7 7 7 7 8 8 8 7 7 7 7 7 7 8 8 8 9 9 9 8 8 8 8 8 8 8 8 8 9 9 9 9 9 9 9 9 9 9 9 10 11 12 12 11
5 6 6 6 7 7 7 7 8 8 8 7 7 7 8 8 8 8 8 8 9 8 8 8 8 8 8 8 8 8 8 8 8 8 8 8 9 9 10 9 9 9 10 10 11 11 12
5 5 5 6 6 7 7 6 7 7 7 7 7 7 7 7 8 8 8 8 8 8 8 8 8 8 7 7 8 7 7 8 8 8 8 8 8 8 9 9 8 9 9 10 10 10 11
4 5 5 5 5 6 6 6 6 7 7 7 7 7 7 7 7 8 8 8 8 8 8 8 7 7 7 7 7 7 7 7 7 7 8 8 8 8 9 8 8 8 8 8 10 9 9
4 4 4 5 5 5 5 6 6 6 6 6 6 6 6 7 6 7 8 8 8 8 8 7 7 7 6 7 6 7 7 7 7 7 7 7 7 7 8 8 7 7 6 7 8 8 8
3 3 4 4 4 5 4 5 5 5 5 5 6 6 6 6 6 7 7 7 7 7 7 7 7 6 6 7 7 6 6 6 6 6 7 7 7 7 7 7 6 6 6 6 7 8 8
3 3 3 4 4 4 4 5 5 5 5 5 5 5 5 6 6 6 7 7 7 7 7 7 6 6 6 7 6 6 6 6 6 6 6 6 6 6 7 6 4 7 6 6 7 6 6
3 3 3 3 4 4 4 5 5 4 4 4 4 4 5 5 5 6 6 6 6 6 7 7 6 6 6 6 6 6 6 6 6 6 5 5 5 5 6 6 6 7 7 6 6 6 6
3 3 3 3 4 4 4 4 5 4 4 4 4 4 4 5 5 5 5 6 6 6 6 6 6 6 6 6 6 6 6 6 6 6 5 5 5 5 4 4 6 6 6 6 7 7 7
3 3 3 3 3 4 4 4 4 4 4 4 4 4 4 4 5 5 5 5 5 6 7 5 5 5 5 5 6 6 5 5 5 5 5 5 5 5 5 5 5 5 6 6 6 6 6
Height
3163 3160 3158 3156 3153 3151 3149 3147 3145 3143 3141 3139 3138 3137 3135 3134 3133 3132 3131 3130 3129 3128 3128 3128 3128 3128 3130 3133 3135 3136 3139 3141 3144 3147 3150 3153 3155 3157 3158 3159 3159 3161 3161 3162 3164 3166 3171
3164 3161 3159 3156 3154 3152 3149 3147 3145 3143 3141 3139 3138 3136 3135 3134 3133 3131 3130 3129 3129 3128 3127 3127 3127 3128 3129 3132 3133 3136 3137 3140 3143 3146 3149 3152 3155 3157 3158 3158 3160 3159 3159 3157 3160 3165 3169
3165 3162 3159 3157 3154 3152 3150 3147 3144 3143 3141 3138 3137 3136 3134 3134 3133 3131 3130 3129 3129 3128 3127 3127 3127 3127 3128 3130 3130 3135 3138 3139 3142 3146 3149 3153 3155 3156 3157 3157 3158 3158 3156 3154 3156 3162 3167
3165 3162 3159 3157 3154 3152 3149 3147 3144 3142 3140 3138 3137 3135 3135 3134 3133 3132 3130 3130 3129 3129 3128 3127 3127 3127 3128 3130 3132 3135 3136 3139 3142 3143 3147 3151 3153 3155 3157 3157 3158 3158 3156 3156 3156 3160 3167
3165 3162 3160 3157 3154 3151 3149 3146 3144 3141 3139 3138 3137 3135 3134 3134 3133 3132 3131 3131 3130 3130 3129 3129 3130 3129 3130 3131 3131 3134 3135 3137 3140 3143 3146 3150 3152 3155 3156 3157 3158 3159 3160 3159 3162 3162 3164
3166 3163 3160 3157 3154 3151 3148 3146 3143 3141 3139 3138 3136 3135 3134 3134 3133 3132 3132 3132 3132 3132 3132 3131 3131 3134 3133 3132 3131 3132 3134 3137 3137 3142 3147 3150 3152 3153 3155 3157 3158 3158 3161 3161 3159 3161 3157
3167 3164 3161 3158 3154 3151 3149 3146 3143 3142 3140 3138 3137 3136 3134 3133 3133 3133 3134 3134 3136 3135 3133 3133 3134 3132 3133 3133 3133 3133 3134 3136 3137 3141 3146 3149 3151 3151 3156 3158 3158 3159 3159 3160 3162 3163 3158
3168 3165 3162 3159 3155 3152 3150 3147 3144 3142 3140 3139 3137 3136 3134 3134 3134 3135 3135 3135 3134 3136 3135 3134 3134 3133 3134 3134 3134 3135 3136 3138 3139 3141 3145 3149 3147 3154 3156 3157 3159 3160 3160 3163 3162 3160 3163
3170 3166 3162 3159 3156 3153 3150 3148 3145 3143 3141 3139 3137 3136 3135 3135 3135 3136 3136 3136 3136 3136 3137 3136 3135 3135 3135 3136 3134 3136 3137 3139 3141 3143 3145 3147 3150 3153 3153 3155 3158 3159 3159 3157 3160 3160 3162
3170 3166 3163 3159 3156 3154 3151 3149 3146 3144 3142 3140 3139 3137 3136 3136 3139 3137 3138 3138 3138 3138 3138 3140 3138 3138 3138 3137 3138 3138 3139 3142 3143 3145 3147 3149 3150 3151 3153 3155 3156 3158 3157 3156 3156 3159 3161
3171 3167 3163 3160 3157 3154 3151 3149 3147 3145 3143 3140 3139 3138 3137 3137 3139 3139 3141 3139 3138 3139 3141 3143 3140 3139 3139 3140 3140 3140 3140 3142 3143 3144 3147 3148 3148 3149 3150 3150 3154 3158 3157 3157 3157 3158 3161
3172 3168 3164 3161 3157 3154 3151 3149 3147 3145 3143 3141 3139 3138 3138 3139 3139 3141 3141 3141 3141 3142 3141 3143 3142 3141 3141 3140 3141 3141 3141 3143 3144 3145 3146 3146 3146 3147 3147 3148 3152 3156 3157 3158 3159 3161 3161
3173 3169 3165 3161 3158 3155 3152 3149 3148 3146 3143 3142 3140 3138 3139 3140 3142 3142 3142 3143 3144 3142 3145 3144 3142 3141 3141 3141 3141 3141 3141 3142 3145 3145 3144 3144 3144 3144 3143 3144 3150 3154 3155 3157 3162 3163 3160
3173 3169 3166 3162 3158 3155 3152 3149 3147 3146 3144 3143 3141 3140 3141 3143 3144 3144 3144 3145 3144 3145 3144 3143 3142 3141 3142 3142 3141 3141 3143 3143 3144 3145 3144 3143 3144 3142 3142 3142 3142 3147 3151 3151 3164 3162 3158
3173 3169 3166 3162 3159 3155 3152 3149 3146 3146 3145 3144 3144 3144 3144 3146 3147 3147 3147 3145 3146 3145 3145 3144 3143 3142 3143 3142 3142 3142 3142 3144 3144 3142 3143 3143 3142 3143 3144 3143 3146 3149 3150 3152 3153 3158 3157
3173 3169 3165 3161 3158 3155 3152 3148 3146 3145 3145 3146 3146 3146 3146 3147 3147 3148 3148 3147 3146 3145 3146 3145 3144 3144 3143 3143 3143 3142 3143 3144 3144 3142 3141 3142 3143 3144 3144 3145 3147 3146 3150 3151 3152 3157 3156
3171 3167 3163 3160 3157 3153 3150 3148 3146 3145 3145 3146 3148 3148 3148 3147 3148 3148 3148 3148 3147 3147 3145 3145 3145 3144 3143 3143 3143 3143 3144 3144 3144 3143 3141 3140 3142 3144 3144 3142 3143 3146 3147 3149 3149 3151 3149
3169 3165 3161 3158 3155 3152 3149 3147 3145 3145 3145 3147 3147 3148 3148 3147 3150 3148 3148 3148 3148 3147 3147 3146 3145 3144 3143 3143 3143 3144 3144 3144 3143 3142 3141 3140 3139 3140 3142 3141 3142 3144 3144 3144 3145 3147 3146
3166 3163 3159 3155 3153 3150 3147 3145 3144 3144 3144 3145 3146 3147 3147 3147 3148 3148 3146 3146 3147 3147 3146 3145 3145 3145 3145 3144 3145 3144 3143 3143 3142 3142 3141 3139 3139 3138 3142 3144 3143 3143 3141 3141 3140 3142 3143
3164 3160 3157 3153 3150 3148 3145 3143 3142 3141 3142 3144 3145 3145 3146 3146 3146 3144 3144 3144 3145 3146 3145 3144 3145 3145 3144 3144 3144 3144 3143 3143 3142 3142 3141 3139 3139 3140 3142 3145 3145 3143 3142 3141 3139 3141 3142
3160 3157 3154 3151 3148 3145 3143 3140 3139 3138 3139 3141 3142 3143 3143 3144 3144 3143 3143 3143 3143 3143 3145 3144 3144 3144 3143 3143 3143 3142 3143 3142 3142 3141 3140 3140 3138 3138 3139 3142 3143 3143 3140 3139 3138 3140 3140
3156 3153 3151 3148 3145 3142 3140 3138 3135 3135 3135 3138 3138 3140 3141 3142 3141 3141 3141 3141 3142 3142 3144 3144 3143 3142 3142 3141 3142 3141 3140 3140 3140 3141 3140 3140 3139 3139 3138 3138 3142 3141 3140 3140 3139 3138 3139
3151 3148 3146 3144 3141 3138 3136 3135 3133 3131 3131 3131 3134 3136 3138 3139 3139 3139 3138 3138 3140 3140 3141 3141 3141 3140 3139 3139 3139 3139 3139 3138 3138 3139 3139 3139 3138 3138 3139 3139 3142 3141 3139 3140 3139 3138 3138
3145 3142 3141 3139 3136 3134 3132 3130 3129 3128 3127 3127 3129 3132 3134 3136 3136 3136 3136 3137 3138 3138 3139 3138 3139 3139 3139 3136 3135 3136 3136 3136 3136 3136 3137 3137 3137 3138 3137 3136 3136 3133 3137 3140 3140 3138 3138
3138 3136 3135 3134 3132 3129 3127 3125 3125 3124 3123 3123 3124 3127 3129 3132 3134 3134 3134 3135 3136 3136 3137 3137 3138 3138 3136 3134 3135 3135 3135 3135 3134 3133 3133 3134 3134 3134 3134 3134 3134 3134 3136 3136 3139 3139 3138
3131 3130 3129 3128 3126 3125 3123 3121 3121 3120 3119 3119 3120 3122 3125 3128 3131 3131 3131 3132 3133 3134 3135 3134 3135 3135 3136 3135 3135 3134 3134 3134 3132 3131 3130 3130 3130 3131 3130 3130 3132 3131 3132 3133 3135 3136 3136
3124 3124 3123 3122 3121 3119 3119 3117 3116 3115 3115 3115 3115 3117 3120 3123 3127 3128 3129 3130 3130 3131 3132 3132 3133 3133 3134 3133 3133 3133 3133 3132 3130 3129 3128 3128 3128 3128 3127 3126 3126 3128 3130 3132 3135 3138 3134
3117 3117 3116 3116 3115 3114 3113 3112 3111 3110 3110 3110 3110 3112 3114 3117 3123 3124 3126 3126 3127 3128 3129 3131 3132 3130 3130 3131 3131 3131 3130 3130 3129 3128 3128 3128 3127 3126 3126 3126 3128 3125 3127 3129 3130 3131 3133
3111 3110 3109 3109 3109 3108 3108 3107 3106 3105 3105 3105 3105 3107 3108 3111 3116 3119 3121 3123 3124 3125 3126 3125 3127 3127 3127 3127 3128 3128 3128 3128 3127 3127 3126 3127 3126 3126 3126 3125 3123 3122 3123 3124 3126 3128 3129
Wind_Speed
13 13 12 12 12 12 12 11 10 9 8 7 6 6 7 7 7 6 6 5 5 5 5 4 2 3 6 10 12 12 14 14 13 14 19 16 13 12 6 3 6 8 6 23 28 25 28
15 15 14 13 12 12 12 11 10 9 8 7 7 6 6 6 6 6 6 5 5 5 5 4 3 1 5 10 16 10 13 14 14 13 19 17 16 10 5 4 9 11 14 14 33 23 24
15 15 14 14 13 13 12 11 10 8 7 7 6 5 6 7 7 6 4 4 4 5 5 5 4 3 2 12 16 18 10 12 15 15 21 20 16 11 4 1 2 8 12 9 31 27 22
15 15 15 14 14 14 13 12 11 9 7 5 5 5 5 5 5 3 4 5 5 6 6 8 10 11 7 2 4 8 14 10 15 19 28 21 17 13 6 2 4 6 5 7 22 21 14
17 16 14 14 14 15 15 14 11 9 7 5 4 4 4 3 2 2 4 6 5 7 11 14 10 11 12 10 4 5 9 13 18 21 27 22 18 13 8 4 3 4 9 4 11 20 21
18 17 16 16 15 16 15 14 11 9 8 6 5 4 3 2 2 4 5 7 7 5 8 7 5 10 9 9 13 3 13 16 18 22 25 21 18 17 11 9 1 4 2 10 9 10 20
20 19 18 17 16 17 15 13 11 10 8 7 6 5 3 1 4 4 6 7 8 11 8 5 7 7 7 6 10 9 18 19 21 24 27 20 24 24 14 10 7 3 3 3 9 6 11
21 19 18 17 17 16 15 12 11 9 8 7 6 4 3 3 5 5 6 9 13 14 13 14 13 3 4 5 2 10 16 16 22 24 22 24 29 19 9 11 9 4 2 2 4 8 11
21 20 19 18 17 16 14 12 10 9 8 6 5 5 5 5 7 8 9 10 11 13 12 12 17 15 7 5 3 12 13 10 15 20 16 14 6 18 13 11 12 5 3 10 4 7 12
21 21 20 19 18 16 14 12 10 8 7 6 4 3 4 5 6 8 9 7 7 8 6 13 8 9 8 8 7 6 15 12 12 12 9 10 11 7 11 15 12 9 4 2 5 4 4
23 23 22 20 18 16 14 12 9 8 7 5 3 0 2 4 4 8 10 5 6 5 4 9 11 10 7 6 8 6 7 11 12 9 10 9 8 5 15 14 15 11 10 6 10 1 2
23 23 22 21 19 17 14 11 8 7 7 6 3 2 3 4 7 13 7 4 7 4 5 4 6 5 8 5 3 2 7 7 7 7 9 10 11 11 11 13 18 15 12 12 5 3 5
22 23 23 21 19 16 14 12 8 6 6 6 4 6 8 10 17 11 7 9 11 6 5 11 7 2 4 8 6 4 5 8 7 4 4 5 4 8 13 15 21 19 20 5 4 3 5
22 21 22 21 19 15 13 11 6 4 4 5 7 10 17 18 12 10 11 11 12 9 12 8 3 7 4 7 8 3 4 8 11 6 9 4 4 8 10 16 23 28 19 10 2 2 4
22 21 20 20 19 17 13 10 5 1 3 2 15 18 15 13 10 10 10 14 11 9 9 6 3 4 4 5 6 5 4 4 1 2 5 2 1 2 18 12 15 24 18 10 11 11 3
22 21 20 19 18 17 14 10 4 2 4 8 19 13 11 9 8 9 10 9 6 7 6 6 6 4 3 9 8 4 3 3 5 8 2 3 4 4 23 17 17 22 17 8 6 4 4
23 21 20 19 18 17 14 10 4 3 10 12 13 8 9 7 6 9 7 6 6 5 6 6 8 8 7 8 7 3 3 4 7 9 3 1 3 3 1 15 23 18 12 9 7 7 5
22 21 20 19 18 16 14 10 3 6 13 13 13 9 6 7 5 4 8 6 5 4 5 8 9 4 6 6 10 6 3 2 4 8 3 5 2 3 3 1 18 27 4 6 8 5 3
22 21 20 19 17 15 14 10 4 9 13 14 15 10 6 2 1 8 6 4 5 4 5 5 1 3 4 5 2 3 2 3 1 6 5 4 3 4 4 9 14 7 7 5 9 9 6
23 21 20 19 17 15 13 11 5 9 16 15 12 10 10 8 12 9 5 8 8 3 3 2 2 1 0 1 2 3 5 3 1 3 5 6 1 0 5 4 9 7 5 5 2 5 3
23 23 21 20 18 16 13 11 8 8 17 19 15 10 13 9 6 6 3 4 7 9 6 4 3 4 4 1 5 2 4 5 2 2 5 5 1 2 15 11 14 3 3 7 4 2 5
24 22 21 19 19 17 15 13 10 8 16 22 20 14 12 9 4 6 7 6 6 9 5 7 7 7 7 6 7 2 0 3 3 2 1 4 4 5 4 21 11 4 2 4 3 3 4
26 24 22 21 19 19 17 14 12 11 12 22 23 20 16 12 4 4 10 10 9 9 9 12 8 6 9 6 8 10 8 7 8 8 7 6 6 5 3 3 22 16 9 5 2 7 7
26 25 22 22 19 20 19 16 13 12 12 17 21 22 20 17 6 6 9 10 8 8 5 8 8 4 8 10 8 10 12 13 11 11 11 7 9 6 6 4 5 10 14 9 6 9 12
25 24 21 20 19 18 18 17 15 11 13 14 18 21 22 19 12 8 9 9 9 7 7 4 2 3 9 3 5 4 2 4 6 8 9 11 10 6 5 3 5 14 12 16 15 9 7
23 22 20 19 19 17 17 17 16 13 12 15 17 20 23 20 14 7 12 12 9 8 7 6 9 6 3 3 1 2 2 4 4 4 6 10 11 11 10 6 7 13 14 11 11 9 7
24 21 19 18 18 16 16 17 16 15 13 15 18 18 23 26 14 9 7 9 7 6 6 6 10 10 8 4 7 6 5 6 3 2 0 2 5 11 13 8 7 6 10 13 8 7 7
22 21 20 20 19 18 17 17 17 15 14 16 19 19 21 25 24 11 10 10 6 8 9 11 10 9 9 10 10 8 7 7 4 4 2 2 3 7 8 5 6 7 8 13 13 14 15
22 21 23 24 22 19 19 17 17 16 15 16 21 21 21 20 18 23 15 12 10 12 12 11 12 10 9 8 8 9 6 7 9 4 3 5 6 3 4 2 5 8 12 14 10 9 11
Wind_Direction
29 26 22 19 15 13 10 7 3 358 357 356 356 354 356 355 350 350 349 340 335 335 331 328 307 238 207 189 192 196 193 193 193 188 191 190 173 164 183 252 265 276 215 189 195 178 187
22 19 14 11 10 8 7 1 357 350 347 354 354 352 354 356 356 354 353 355 353 358 353 352 341 259 196 184 197 176 189 190 183 183 190 183 175 162 153 249 262 265 261 230 195 195 189
13 8 6 4 3 3 0 355 354 346 347 348 345 346 352 1 358 359 17 19 30 24 35 32 40 46 171 189 200 195 183 192 178 174 180 173 174 171 129 205 273 315 270 247 208 191 187
11 7 4 2 0 358 357 354 353 352 352 348 335 348 359 360 3 17 35 53 60 66 68 75 81 81 73 59 278 197 200 185 178 172 173 177 186 187 191 194 303 295 6 126 183 198 186
18 15 11 9 3 1 358 357 358 0 360 359 354 359 9 13 17 88 73 56 76 81 94 95 97 81 63 37 336 184 187 170 168 171 174 179 191 186 195 219 278 82 107 195 164 196 218
21 21 17 13 6 4 0 3 8 11 15 17 16 14 15 24 113 116 72 46 44 89 95 97 94 89 76 56 23 197 178 173 155 172 175 184 197 209 196 213 255 34 117 143 209 329 177
21 17 14 11 9 6 5 12 19 19 19 19 17 12 18 78 136 130 72 60 84 77 68 88 64 84 90 66 34 132 143 155 153 165 178 186 204 211 201 215 245 308 312 199 192 155 196
20 17 14 11 12 10 9 16 20 18 15 15 20 25 53 104 133 110 94 97 99 69 81 80 58 100 63 22 34 169 159 154 166 166 175 197 213 208 221 226 234 165 52 152 190 200 205
19 16 14 14 15 14 13 16 17 16 14 20 37 54 82 111 120 113 120 98 85 83 74 67 62 48 34 45 69 166 169 154 174 173 183 207 206 218 216 195 171 169 51 46 228 225 207
19 17 14 15 15 15 14 14 16 11 6 9 26 60 100 109 119 123 126 96 95 80 81 38 37 34 33 40 59 133 178 167 183 178 186 231 200 213 214 195 208 238 260 204 153 143 230
19 17 14 14 14 13 11 11 11 0 357 0 11 30 137 139 121 122 133 94 78 72 48 6 23 66 56 65 59 89 157 191 185 169 205 214 234 255 234 219 220 234 206 162 159 265 198
15 16 14 13 13 10 5 3 4 357 352 349 356 48 80 102 120 141 148 80 74 58 35 16 26 44 48 354 328 324 185 206 224 243 259 282 288 258 249 264 237 215 170 141 73 121 300
11 10 12 11 10 9 1 356 357 357 357 1 47 88 118 119 124 110 107 108 77 53 3 5 355 324 357 39 41 111 168 213 227 275 250 289 258 238 240 204 180 212 160 91 55 331 240
7 6 5 7 5 6 0 351 351 3 15 18 81 104 116 115 116 98 93 85 68 46 42 39 72 115 98 17 23 239 190 222 234 280 308 3 101 193 202 186 173 194 192 130 110 272 261
358 1 360 0 0 2 358 347 334 307 302 28 120 113 114 108 106 108 96 71 66 36 39 79 82 124 52 22 44 63 235 77 27 346 232 340 168 147 201 201 179 187 193 184 138 229 253
349 351 353 353 355 356 357 347 317 265 193 130 134 116 121 92 97 101 94 78 38 82 63 71 74 14 38 54 67 133 128 70 37 22 278 241 218 196 189 227 205 196 190 180 194 154 232
341 343 345 345 347 352 352 349 312 219 177 153 146 134 126 107 119 113 88 55 66 24 35 50 74 56 102 45 37 52 100 50 279 324 18 249 228 177 337 213 219 198 205 219 219 219 173
336 337 338 338 339 343 348 341 299 187 171 173 172 155 138 115 127 101 12 343 78 30 74 82 96 86 29 56 88 79 76 70 331 347 316 341 275 306 288 285 211 233 135 214 222 209 172
332 334 333 332 333 334 338 335 300 205 196 187 190 175 182 199 206 330 331 227 243 310 311 315 212 97 23 64 121 51 51 229 294 16 18 321 324 307 148 109 137 74 65 67 183 228 254
328 329 329 327 327 327 330 326 302 222 200 199 201 207 218 239 262 277 325 221 220 212 105 126 110 271 253 300 82 147 77 75 224 333 350 354 0 268 125 11 10 6 358 11 116 192 209
320 323 323 322 321 320 321 317 299 235 213 205 215 204 200 199 210 206 254 223 203 184 190 201 231 260 298 329 255 199 202 128 152 150 29 17 166 186 194 266 336 125 0 9 31 159 197
311 311 315 315 313 313 311 313 296 260 221 216 220 213 210 208 214 217 224 212 191 192 202 237 255 281 294 276 263 291 208 180 206 236 269 350 299 311 330 243 284 205 23 21 351 156 185
309 301 303 308 305 302 304 306 298 274 238 222 223 227 219 215 232 240 228 200 230 258 277 294 283 304 357 290 227 242 261 273 280 285 310 288 326 296 255 169 226 274 285 339 179 78 157
303 301 295 302 302 298 295 295 297 278 262 234 227 226 226 223 237 233 196 194 230 242 236 254 275 333 342 324 273 274 261 263 271 277 271 280 277 299 264 280 190 200 175 163 177 117 101
295 299 290 297 299 296 298 291 290 282 261 249 233 226 225 233 230 238 228 204 216 232 227 211 235 295 330 41 136 189 226 221 253 264 263 273 244 234 229 206 177 178 183 183 205 192 148
289 293 290 295 298 289 298 296 284 286 265 254 245 230 223 225 223 228 180 181 215 248 250 265 215 236 296 237 249 282 288 296 263 263 255 246 230 222 212 193 201 217 211 205 213 184 180
287 283 286 293 300 286 292 297 290 279 271 252 249 242 230 223 202 214 194 191 196 223 239 234 222 234 255 252 257 263 273 289 276 284 82 313 237 226 222 229 212 208 220 200 213 234 225
288 277 282 289 293 286 283 288 290 280 273 256 249 246 240 229 219 223 230 217 205 222 244 256 251 246 245 241 252 271 227 255 271 215 241 293 258 229 217 231 240 176 221 217 250 246 267
286 284 280 284 288 282 279 281 284 284 269 257 250 248 245 240 223 218 212 214 238 257 276 275 261 256 243 233 241 257 246 256 257 257 266 251 249 269 262 256 210 215 203 199 192 225 241